TimeCDT,TemperatureF,Dew PointF,Humidity,Sea Level PressureIn,VisibilityMPH,Wind Direction,Wind SpeedMPH,Gust SpeedMPH,PrecipitationIn,Events,Conditions,WindDirDegrees,DateUTC
12:19 AM,53.6,46.4,77,29.75,10.0,WSW,10.4,-,0.01,,Overcast,240,2013-03-11 05:19:00
12:26 AM,53.6,46.4,77,29.75,10.0,WSW,9.2,-,0.01,,Overcast,240,2013-03-11 05:26:00
12:52 AM,52.0,46.9,83,29.75,10.0,WSW,6.9,-,0.01,,Overcast,240,2013-03-11 05:52:00
1:11 AM,51.8,46.4,82,29.75,5.0,West,8.1,-,0.00,Rain,Light Rain,280,2013-03-11 06:11:00
1:30 AM,51.8,44.6,76,29.76,4.0,West,6.9,-,0.00,,Haze,270,2013-03-11 06:30:00
1:52 AM,51.1,45.0,80,29.76,5.0,WSW,5.8,-,0.00,,Haze,250,2013-03-11 06:52:00
2:52 AM,50.0,45.0,83,29.74,9.0,West,3.5,-,0.00,,Overcast,280,2013-03-11 07:52:00
3:23 AM,50.0,44.6,82,29.72,10.0,West,3.5,-,N/A,,Overcast,260,2013-03-11 08:23:00
3:52 AM,50.0,43.0,77,29.72,10.0,West,4.6,-,N/A,,Overcast,260,2013-03-11 08:52:00
4:04 AM,50.0,42.8,76,29.72,10.0,WSW,4.6,-,N/A,,Overcast,250,2013-03-11 09:04:00
5:52 AM,48.9,37.9,66,29.76,10.0,West,9.2,-,N/A,,Overcast,260,2013-03-11 10:52:00
6:52 AM,46.9,37.0,68,29.77,10.0,WSW,9.2,-,N/A,,Overcast,250,2013-03-11 11:52:00
7:42 AM,42.8,35.6,76,29.78,5.0,West,9.2,-,0.01,,Haze,260,2013-03-11 12:42:00
7:52 AM,43.0,36.0,76,29.79,6.0,West,10.4,-,0.01,,Haze,270,2013-03-11 12:52:00
8:20 AM,42.8,35.6,76,29.78,8.0,West,6.9,-,N/A,,Overcast,260,2013-03-11 13:20:00
8:37 AM,42.8,33.8,70,29.79,8.0,West,11.5,18.4,N/A,,Overcast,260,2013-03-11 13:37:00
8:52 AM,43.0,34.0,71,29.79,5.0,West,13.8,19.6,N/A,,Haze,270,2013-03-11 13:52:00
9:52 AM,45.0,32.0,60,29.83,10.0,West,11.5,-,N/A,,Overcast,270,2013-03-11 14:52:00
10:33 AM,44.6,32.0,61,29.82,10.0,West,9.2,-,N/A,,Overcast,260,2013-03-11 15:33:00
10:52 AM,45.0,30.0,56,29.82,10.0,West,12.7,20.7,N/A,,Overcast,270,2013-03-11 15:52:00
11:14 AM,44.6,28.4,53,29.82,10.0,West,13.8,19.6,N/A,,Overcast,270,2013-03-11 16:14:00
11:26 AM,44.6,28.4,53,29.82,10.0,WNW,13.8,18.4,N/A,,Overcast,290,2013-03-11 16:26:00
11:52 AM,45.0,28.9,53,29.82,10.0,West,11.5,-,N/A,,Overcast,270,2013-03-11 16:52:00
12:03 PM,44.6,30.2,57,29.83,10.0,West,10.4,-,N/A,,Overcast,270,2013-03-11 17:03:00
12:52 PM,44.1,30.0,58,29.85,10.0,West,12.7,-,N/A,,Overcast,270,2013-03-11 17:52:00
1:52 PM,43.0,28.9,58,29.85,10.0,West,15.0,20.7,N/A,,Overcast,270,2013-03-11 18:52:00
2:52 PM,42.1,28.9,60,29.85,10.0,West,13.8,-,N/A,,Overcast,270,2013-03-11 19:52:00
3:52 PM,42.1,28.9,60,29.86,10.0,West,11.5,-,N/A,,Overcast,260,2013-03-11 20:52:00
4:52 PM,42.1,28.0,58,29.88,10.0,West,9.2,-,N/A,,Overcast,270,2013-03-11 21:52:00
5:52 PM,41.0,28.9,62,29.91,10.0,West,9.2,-,N/A,,Overcast,260,2013-03-11 22:52:00
6:52 PM,41.0,28.0,60,29.93,10.0,West,9.2,-,N/A,,Overcast,270,2013-03-11 23:52:00
8:52 PM,41.0,27.0,57,29.98,10.0,WNW,4.6,-,N/A,,Overcast,290,2013-03-12 01:52:00
9:11 PM,41.0,26.6,57,29.98,10.0,WNW,5.8,-,N/A,,Overcast,300,2013-03-12 02:11:00
9:52 PM,39.9,28.0,63,30.01,10.0,WNW,3.5,-,N/A,,Overcast,290,2013-03-12 02:52:00
10:32 PM,39.2,26.6,61,30.01,10.0,Variable,4.6,-,N/A,,Overcast,0,2013-03-12 03:32:00
10:52 PM,39.9,27.0,60,30.02,10.0,West,4.6,-,N/A,,Overcast,280,2013-03-12 03:52:00
11:52 PM,39.0,28.0,65,30.02,10.0,WSW,3.5,-,N/A,,Overcast,240,2013-03-12 04:52:00